Find SaudiComsat-5

NORAD ID: 31124 Int'l Des: 2007-012 Owner: KACST Country: SA operational
LEOCIRCULARRETROGRADESSO

Current View

Loading 3D Globe...

About SaudiComsat-5

Description loading...

Upcoming Passes

Passes for default location (London). Set your location on the main map for personalized predictions.

Altitude History

Loading altitude history...

Two-Line Element Set

1 31124U 07012H 26151.18413203 .00000678 00000-0 12522-3 0 9994
2 31124 98.3481 125.7199 0047395 177.5225 182.6223 14.68134797 21105
Epoch: May 31, 2026 • Age: 8 hours

Current Status

Altitude 709.0 km
Velocity 7.49 km/s
Sub-Earth Point -38.61°S, 57.45°E
Launch Date Apr 17, 2007
Age 19.1 years
Type other

Technical Details

Classification Payload
Mass 12.00 kg
Dry Mass 12.00 kg
Total Mass 12.00 kg
Length 0.20 m
Diameter 0.20 m
Span 0.20 m
Shape Box
Manufacturer KACST
Bus Type Saudisat
Phase Status In Orbit
Owner/State KACST/SA

Most Searched